FW2265 Weather Reports


time (UTC)temp
C
wind
direction
speed
KPH
gust
KPH
rain 1hr
cm
rain 24hr
cm
rain mn
cm
humidity
%
barometer
mb
20260504223036 25 189 0.0 4.8 0.00 0.00 0.00 63 1012.7
20260504221035 25 184 1.6 6.4 0.00 0.00 0.00 62 1012.8
20260504220036 25 178 1.6 8.0 0.00 0.00 0.00 61 1012.8
20260504215036 25 202 1.6 3.2 0.00 0.00 0.00 60 1013.0
20260504214033 26 201 3.2 8.0 0.00 0.00 0.00 60 1013.2
20260504213036 26 180 0.0 0.0 0.00 0.00 0.00 59 1013.1
20260504212133 26 161 0.0 3.2 0.00 0.00 0.00 57 1013.1
20260504211136 27 213 1.6 3.2 0.00 0.00 0.00 56 1013.2
20260504205235 27 195 1.6 8.0 0.00 0.00 0.00 56 1013.3
20260504204235 27 220 1.6 4.8 0.00 0.00 0.00 54 1013.6
20260504203233 27 198 1.6 4.8 0.00 0.00 0.00 54 1013.7
20260504203134 27 216 3.2 8.0 0.00 0.00 0.00 54 1013.8
20260504202233 27 207 0.0 3.2 0.00 0.00 0.00 54 1013.8
20260504201235 27 211 3.2 8.0 0.00 0.00 0.00 53 1014.0
20260504200236 27 208 0.0 6.4 0.00 0.00 0.00 53 1014.0
20260504195333 27 225 0.0 1.6 0.00 0.00 0.00 52 1014.0
20260504193434 28 191 0.0 0.0 0.00 0.00 0.00 51 1014.4
20260504192434 28 217 1.6 4.8 0.00 0.00 0.00 50 1014.7
20260504191435 27 190 0.0 1.6 0.00 0.00 0.00 52 1014.8
20260504185534 27 194 3.2 8.0 0.00 0.00 0.00 51 1014.9
20260504184537 27 161 0.0 6.4 0.00 0.00 0.00 52 1014.7
20260504183533 27 228 1.6 6.4 0.00 0.00 0.00 52 1014.7
20260504181536 27 223 1.6 4.8 0.00 0.00 0.00 51 1015.2
20260504180534 26 188 0.0 4.8 0.00 0.00 0.00 54 1015.3
20260504175533 26 180 0.0 1.6 0.00 0.00 0.00 52 1015.4
20260504174536 27 173 0.0 3.2 0.00 0.00 0.00 51 1015.3
20260504173536 27 201 1.6 8.0 0.00 0.00 0.00 52 1015.7
20260504172536 27 214 4.8 9.7 0.00 0.00 0.00 51 1015.9
20260504171635 26 183 0.0 3.2 0.00 0.00 0.00 53 1015.7
20260504170733 26 206 1.6 4.8 0.00 0.00 0.00 54 1016.2
20260504151034 24 191 0.0 4.8 0.00 0.00 0.00 60 1016.8
20260504141132 22 203 0.0 4.8 0.00 0.00 0.00 65 1016.8
20260504141033 22 225 1.6 3.2 0.00 0.00 0.00 65 1016.8
20260504120236 13 225 0.0 0.0 0.00 0.00 0.00 88 1016.8
20260504110433 14 225 0.0 0.0 0.00 0.00 0.00 87 1016.5
20260504081134 16 225 0.0 0.0 0.00 0.00 0.00 71 1017.4
20260504080134 17 225 0.0 0.0 0.00 0.00 0.00 69 1017.7
20260504050533 16 225 0.0 0.0 0.00 0.00 0.00 72 1019.3
20260504045537 16 225 0.0 0.0 0.00 0.00 0.00 72 1019.4
20260504045439 16 225 0.0 0.0 0.00 0.00 0.00 72 1019.4
20260504044439 16 225 0.0 0.0 0.00 0.00 0.00 70 1019.5
20260504042440 17 225 0.0 0.0 0.00 0.00 0.00 68 1019.5
20260504041440 17 225 0.0 0.0 0.00 0.00 0.00 66 1019.3
20260504041340 17 225 0.0 0.0 0.00 0.00 0.00 66 1019.3
20260504040339 17 225 0.0 0.0 0.00 0.00 0.00 64 1019.3
20260504035340 18 225 0.0 0.0 0.00 0.00 0.00 62 1019.5
20260504034338 18 225 0.0 0.0 0.00 0.00 0.00 61 1019.6
20260504033437 18 225 0.0 0.0 0.00 0.00 0.00 60 1019.6
20260504031441 18 225 0.0 0.0 0.00 0.00 0.00 59 1019.4
20260504030440 18 225 0.0 0.0 0.00 0.00 0.00 57 1019.3
20260504025440 19 225 0.0 0.0 0.00 0.00 0.00 55 1019.4
20260504023537 20 225 0.0 0.0 0.00 0.00 0.00 54 1019.5
20260504022540 20 225 0.0 0.0 0.00 0.00 0.00 53 1019.2
20260504021637 20 202 0.0 1.6 0.00 0.00 0.00 54 1019.4
20260504020639 20 225 0.0 1.6 0.00 0.00 0.00 53 1019.3
20260504015639 20 202 0.0 1.6 0.00 0.00 0.00 52 1019.2
20260504014638 20 225 0.0 0.0 0.00 0.00 0.00 52 1019.3
20260504013639 21 225 0.0 1.6 0.00 0.00 0.00 50 1019.2
20260504011741 21 225 0.0 1.6 0.00 0.00 0.00 48 1019.2
20260504010837 21 180 0.0 0.0 0.00 0.00 0.00 48 1019.1
20260504005840 21 202 0.0 1.6 0.00 0.00 0.00 48 1019.1
20260504004939 22 225 0.0 0.0 0.00 0.00 0.00 47 1019.1
20260504003939 22 225 0.0 0.0 0.00 0.00 0.00 46 1019.1
20260504002941 22 215 0.0 3.2 0.00 0.00 0.00 44 1019.0
20260504001940 22 122 0.0 0.0 0.00 0.00 0.00 43 1019.0
20260504000940 23 224 1.6 6.4 0.00 0.00 0.00 42 1019.1
20260504000037 23 217 0.0 3.2 0.00 0.00 0.00 40 1019.0
20260503235040 23 195 1.6 4.8 0.00 0.00 0.00 40 1019.1
20260503233138 24 178 0.0 1.6 0.00 0.00 0.00 38 1019.3
20260503232139 24 222 0.0 3.2 0.00 0.00 0.00 38 1019.2
20260503232037 24 225 1.6 4.8 0.00 0.00 0.00 39 1019.2
20260503231039 25 220 1.6 6.4 0.00 0.00 0.00 38 1019.2
20260503230040 25 258 0.0 1.6 0.00 0.00 0.00 38 1019.2
20260503225039 25 221 1.6 4.8 0.00 0.00 0.00 37 1019.3
20260503224038 25 225 0.0 1.6 0.00 0.00 0.00 37 1019.4
20260503223939 25 225 0.0 3.2 0.00 0.00 0.00 36 1019.5